Wind_Speed
22 23 22 22 24 22 24 22 21 19 16 17 21 20 22 19 21 23 25 28 27 22 27 26 28 27 26 26 27 29 29 28 27 25 23 23 24 26 27 25 25 25 25 26 28 29 29 29 27
24 24 24 24 25 24 25 24 22 20 17 24 27 22 24 28 33 34 32 30 28 22 27 26 28 28 27 28 28 28 26 26 25 22 21 22 25 27 26 25 25 27 29 30 30 30 31 30 28
26 26 27 27 26 25 28 23 25 24 22 26 30 31 28 30 36 36 37 32 26 26 27 24 27 30 31 31 30 32 29 26 25 24 24 24 27 25 24 25 25 27 28 27 25 24 24 24 26
32 31 30 28 25 27 27 26 28 28 26 28 28 33 31 32 36 36 35 35 30 29 26 23 25 32 31 29 31 31 33 30 27 26 28 28 29 26 26 28 29 27 23 22 22 22 24 22 21
34 33 34 31 29 28 29 29 32 34 33 38 35 36 35 26 23 26 27 30 32 28 29 24 25 31 31 34 38 39 34 31 28 28 30 32 32 31 29 30 31 27 22 21 22 22 23 24 23
35 35 37 35 32 31 31 32 32 36 35 39 34 39 33 33 34 35 36 32 32 29 27 22 28 31 28 36 39 40 38 31 31 30 33 35 35 35 32 31 33 29 27 24 24 22 22 22 21
40 42 42 38 34 35 34 39 36 38 41 37 37 38 39 34 34 34 38 38 37 35 31 24 32 38 30 28 35 38 36 34 30 31 31 33 35 36 34 31 32 30 28 27 24 24 23 20 20
44 45 44 41 35 33 36 43 39 42 46 42 45 44 39 34 34 37 42 42 41 43 33 34 43 45 38 35 29 34 35 33 30 33 31 32 34 35 34 31 30 30 29 27 25 23 23 23 23
49 52 50 43 39 36 42 42 41 45 48 42 40 41 39 40 41 44 41 36 41 42 42 36 45 52 47 48 37 31 28 33 29 32 33 31 33 36 35 30 30 30 29 28 26 23 23 25 27
53 56 52 44 43 44 46 44 40 44 42 37 36 38 42 34 38 39 36 39 41 46 46 42 46 54 50 52 38 27 29 33 29 32 35 32 33 36 35 31 31 29 29 30 29 29 26 25 29
58 61 51 50 47 44 48 51 45 43 39 29 34 39 37 37 31 35 38 39 46 49 49 45 54 56 47 50 34 28 30 32 28 32 37 34 33 36 34 32 32 30 31 33 33 32 34 28 30
60 60 58 48 49 49 47 50 56 51 47 44 35 43 39 40 32 35 40 41 43 49 49 51 55 56 50 45 34 30 29 25 28 33 36 35 34 36 34 31 31 32 34 37 36 38 38 33 30
63 61 66 63 59 58 56 58 55 56 55 51 52 47 41 40 39 39 42 40 40 44 49 52 54 55 48 39 32 31 29 27 32 33 35 36 36 38 34 29 30 33 37 39 41 42 38 34 31
65 66 67 68 63 60 60 59 55 54 47 53 49 46 45 43 43 42 38 41 45 52 55 55 54 50 48 34 29 31 30 30 34 35 35 35 36 36 32 29 31 35 38 41 43 44 39 37 35
71 73 71 68 68 67 62 60 59 54 53 47 47 47 43 41 41 43 48 48 46 49 50 45 48 48 41 33 29 33 34 34 34 34 33 35 35 33 34 33 35 38 40 43 48 43 40 38 36
74 72 72 64 69 67 68 62 55 56 55 49 45 43 43 43 44 48 50 47 44 47 43 42 43 42 38 34 31 35 35 37 35 33 34 35 32 33 32 39 34 38 40 44 46 42 41 38 35
73 72 70 66 68 74 76 60 53 48 51 48 49 49 46 46 44 42 39 40 44 40 40 42 40 40 39 32 32 34 35 35 35 33 34 33 32 29 33 38 36 40 43 44 41 41 40 39 34
69 68 66 67 62 62 64 58 51 44 47 48 50 48 48 44 39 33 31 34 36 37 39 41 39 41 36 33 30 29 29 35 34 34 34 34 31 29 34 37 40 41 40 38 39 42 38 33 32
61 63 63 60 58 55 57 55 51 48 46 44 42 43 44 39 36 30 31 34 36 34 36 38 39 36 36 35 33 29 31 30 32 33 33 30 30 32 33 37 34 36 36 38 40 35 32 30 29
64 63 61 58 58 58 53 54 50 46 44 38 36 38 37 35 28 29 31 34 34 31 35 36 34 34 35 35 32 30 29 29 30 33 32 31 32 33 34 32 33 34 36 35 32 30 28 26 25
66 65 60 59 57 56 54 57 48 43 42 39 38 35 32 31 28 30 32 29 27 33 34 33 31 32 29 29 27 30 28 25 29 32 29 30 32 32 28 29 31 32 29 27 25 24 23 23 22
67 64 61 61 59 57 53 57 48 37 37 37 37 33 30 29 27 28 25 25 30 31 31 30 30 29 25 26 27 25 22 25 30 28 28 29 27 26 26 27 28 25 25 24 22 23 24 23 21
64 65 62 63 61 59 55 56 37 36 35 31 28 29 27 28 27 24 26 31 28 28 29 28 26 24 22 20 19 18 22 25 25 26 26 25 24 24 24 26 24 22 22 22 22 21 19 18 17
64 66 62 62 63 65 53 54 28 29 31 27 31 34 31 27 22 25 28 26 24 28 25 23 21 21 17 17 15 19 20 23 25 24 23 22 22 24 23 22 19 18 19 18 17 15 16 18 13
64 65 64 65 65 56 51 54 28 18 30 26 31 29 19 18 24 22 21 22 26 26 23 21 18 17 16 15 18 20 20 22 22 21 20 21 23 22 19 17 15 16 17 17 16 13 13 14 10
61 64 64 66 63 54 49 51 36 26 20 24 22 19 18 23 19 22 21 21 22 22 22 16 14 13 15 17 19 18 18 19 18 18 20 23 20 16 14 13 12 13 14 16 14 13 13 12 11
54 58 55 56 59 57 51 45 42 31 26 24 14 16 19 18 19 18 17 17 15 15 13 11 11 13 16 18 16 16 15 15 16 18 22 18 13 12 10 9 7 11 11 9 12 15 11 8 5
49 53 54 57 56 57 53 48 43 34 24 19 22 22 19 19 18 15 18 9 9 6 7 9 12 14 15 14 13 12 13 14 16 20 16 11 9 10 7 5 8 9 10 6 11 12 11 7 6
45 50 54 55 55 55 52 49 46 36 27 30 24 24 19 19 17 16 13 7 8 9 9 11 13 13 11 11 11 12 13 15 17 13 10 6 7 7 4 5 9 7 10 7 10 12 10 9 6
37 48 53 57 57 55 55 53 49 40 32 33 25 19 16 17 15 14 8 7 10 10 11 12 13 9 9 11 10 12 16 15 10 10 5 5 6 4 3 5 8 7 8 8 10 12 10 12 6
Wind_Direction
218 218 210 208 209 201 203 208 225 231 244 264 266 268 278 277 270 273 277 281 288 313 331 336 341 337 339 346 347 344 339 335 332 325 321 317 316 312 310 305 301 299 297 297 297 294 291 288 283
219 218 215 209 208 203 207 216 228 232 246 270 260 253 263 271 272 277 273 275 279 322 328 328 341 338 339 343 341 341 340 335 332 322 316 312 311 306 301 299 298 298 299 298 295 292 287 282 278
226 221 219 210 208 212 224 222 230 239 245 260 267 271 268 274 270 268 271 268 279 322 320 331 342 344 343 341 336 334 338 333 329 321 314 313 310 301 292 293 295 297 299 298 296 297 294 288 282
226 224 220 218 212 215 226 231 236 235 240 242 257 269 271 282 267 267 264 264 276 310 311 327 333 334 335 332 333 332 330 332 327 321 315 311 312 308 299 297 299 303 301 300 301 304 303 299 293
223 228 227 220 214 221 228 233 237 243 248 252 257 259 271 274 257 252 249 269 287 310 314 312 324 329 318 323 326 330 329 331 325 323 316 312 315 316 306 305 309 309 301 295 299 301 298 296 294
228 231 237 231 219 219 223 232 238 242 245 261 267 272 273 264 263 254 269 291 304 308 304 297 315 323 318 318 319 321 323 328 323 322 321 318 314 315 311 311 313 311 306 304 304 304 296 287 288
231 234 235 230 222 220 221 231 233 248 258 257 261 272 279 269 274 283 291 295 300 301 306 299 310 311 319 316 319 315 316 318 316 315 315 310 307 311 311 310 311 307 309 312 311 307 300 296 297
235 234 232 227 218 215 220 231 238 250 256 258 263 271 276 282 280 286 289 294 304 303 304 303 312 317 322 319 324 310 306 309 312 311 314 307 304 307 307 305 309 306 310 311 309 307 303 301 296
235 236 234 231 222 221 228 228 236 246 255 261 263 276 276 271 285 285 285 295 300 303 305 305 312 317 319 314 318 304 303 302 303 307 312 306 301 303 304 304 307 304 308 310 308 308 306 303 302
237 241 239 238 239 239 239 243 239 243 251 257 261 268 271 272 288 284 290 289 296 304 303 304 310 310 310 309 315 304 297 297 301 309 310 303 298 300 300 300 303 302 305 310 312 313 313 305 301
236 243 246 243 243 244 248 250 246 243 241 247 260 258 265 280 286 282 281 289 294 298 300 299 301 302 303 304 310 297 291 291 301 308 305 302 296 297 296 296 299 301 304 310 310 314 319 310 298
245 244 247 246 250 248 252 261 259 248 246 256 268 270 274 270 275 273 277 281 288 293 292 293 293 296 299 302 295 291 288 286 298 304 303 300 293 293 290 290 296 301 304 305 309 310 309 311 300
247 249 251 254 255 254 256 255 261 267 273 269 276 269 273 271 277 269 270 276 280 283 286 286 288 289 297 295 282 284 283 286 291 299 298 295 291 292 285 287 292 294 296 302 307 306 310 310 303
246 250 254 256 255 253 258 255 256 257 265 274 270 273 277 272 274 277 275 275 275 278 281 282 282 286 290 287 277 282 281 283 287 293 297 293 293 292 285 284 286 290 295 298 302 303 309 309 305
246 249 250 251 254 257 256 253 253 267 269 266 264 268 268 268 271 273 269 270 277 275 274 274 279 284 284 281 272 281 279 285 287 294 296 293 291 288 284 287 285 291 294 297 301 305 307 306 303
248 248 252 255 256 259 257 256 262 266 266 265 261 260 258 260 261 264 267 270 268 267 269 273 278 281 283 285 278 278 278 285 292 293 290 291 284 286 285 284 290 294 298 297 300 303 304 302 298
247 248 250 252 249 253 255 258 262 261 260 260 260 262 259 260 261 266 261 260 261 270 270 276 277 279 284 285 283 282 283 288 290 284 287 285 281 287 288 289 295 298 296 297 300 302 302 299 293
250 252 250 250 249 251 255 259 262 259 255 251 254 254 254 258 260 260 257 256 261 264 266 272 272 271 279 281 280 292 293 282 280 278 283 283 285 292 288 293 293 295 296 301 302 301 302 297 293
246 248 248 248 250 248 254 255 254 256 255 249 251 256 256 257 254 250 253 255 262 262 267 264 265 276 281 288 286 276 283 278 276 278 281 281 289 291 290 289 293 300 306 304 303 303 301 298 292
241 244 246 249 250 253 250 254 250 250 254 258 256 252 255 252 247 251 254 257 260 263 262 266 272 281 289 287 282 271 268 270 278 279 278 284 285 290 295 301 305 306 306 303 305 304 301 301 295
239 240 242 245 249 251 253 251 249 247 251 252 254 253 244 243 241 245 250 255 257 259 266 271 281 289 291 285 264 264 267 276 275 276 280 286 287 294 304 304 303 307 310 311 300 297 302 304 298
235 239 239 242 244 247 251 250 245 246 249 250 253 249 243 246 244 244 248 249 259 262 266 275 281 286 279 273 262 262 271 271 274 278 283 287 295 304 304 304 305 309 305 294 295 300 302 300 295
233 234 236 238 240 243 245 253 237 239 244 247 254 249 243 240 238 242 236 241 251 265 275 275 274 271 272 270 269 269 271 275 278 286 291 296 303 303 307 303 306 301 299 304 303 301 302 307 307
229 233 233 236 238 238 239 251 238 237 240 236 232 241 244 241 239 232 241 251 257 268 269 261 260 267 268 267 267 277 274 278 287 291 296 300 303 307 301 299 296 298 293 311 323 305 306 324 323
225 228 229 232 235 237 236 242 237 238 228 226 231 234 237 233 229 249 255 253 260 266 258 251 256 262 266 265 272 269 276 283 288 294 297 301 304 299 292 294 291 294 297 336 326 318 321 323 330
222 226 227 229 233 234 236 234 231 219 218 225 239 232 219 224 248 253 249 265 272 269 259 253 254 258 263 263 266 275 279 286 292 298 298 300 297 291 288 285 289 297 302 332 330 309 295 320 319
220 222 224 228 230 229 229 227 226 216 215 237 226 211 215 230 236 248 262 268 277 270 255 240 245 259 259 266 273 281 284 293 302 298 297 295 289 285 281 279 302 296 315 333 334 344 310 308 331
218 222 219 222 222 224 224 224 220 213 221 200 213 203 201 216 235 257 257 262 265 240 220 237 251 257 266 271 287 289 298 305 302 300 299 293 284 281 280 296 294 300 326 319 334 345 360 314 299
217 215 220 220 220 222 223 220 220 217 208 215 217 212 220 224 240 243 246 249 254 238 239 244 257 260 266 291 292 299 305 304 299 295 296 282 295 274 296 293 289 309 326 308 338 341 344 356 315
225 213 214 215 217 217 220 216 222 214 216 206 207 201 212 230 223 234 234 251 253 244 243 252 260 269 287 288 293 300 299 303 292 303 297 295 310 274 270 291 289 309 311 310 338 346 343 348 328
Height
5873 5876 5876 5879 5883 5880 5879 5880 5878 5881 5882 5880 5881 5880 5880 5881 5882 5884 5883 5882 5882 5884 5882 5880 5877 5873 5873 5871 5870 5868 5867 5863 5860 5857 5854 5850 5847 5845 5842 5840 5838 5835 5834 5832 5831 5829 5828 5826 5825
5869 5872 5874 5875 5879 5878 5876 5877 5878 5879 5879 5879 5879 5880 5881 5882 5881 5881 5881 5880 5880 5882 5880 5877 5874 5871 5870 5868 5867 5867 5864 5861 5858 5854 5851 5848 5846 5843 5839 5838 5835 5832 5830 5827 5826 5823 5822 5820 5819
5865 5867 5870 5871 5875 5876 5874 5878 5876 5875 5874 5878 5876 5875 5881 5884 5882 5879 5879 5877 5879 5879 5876 5874 5871 5869 5867 5865 5864 5863 5861 5857 5854 5850 5847 5845 5843 5840 5837 5835 5833 5830 5826 5822 5819 5817 5816 5813 5812
5861 5862 5866 5868 5873 5872 5871 5873 5873 5871 5873 5873 5875 5871 5876 5879 5875 5875 5875 5874 5876 5875 5872 5871 5869 5868 5867 5865 5862 5859 5856 5853 5849 5846 5842 5840 5838 5835 5833 5831 5829 5825 5821 5818 5815 5812 5811 5808 5806
5853 5857 5859 5864 5868 5870 5868 5868 5868 5869 5870 5869 5869 5872 5872 5874 5871 5871 5869 5870 5871 5871 5869 5868 5867 5866 5864 5861 5856 5853 5850 5847 5844 5840 5837 5834 5830 5829 5827 5825 5823 5820 5817 5814 5811 5809 5807 5804 5801
5847 5850 5854 5859 5864 5865 5864 5861 5861 5861 5862 5864 5866 5865 5867 5866 5867 5868 5866 5865 5864 5865 5863 5864 5863 5862 5861 5857 5852 5848 5845 5841 5838 5836 5831 5828 5825 5823 5821 5818 5816 5814 5811 5809 5806 5804 5802 5800 5797
5841 5843 5847 5852 5857 5858 5860 5854 5855 5857 5859 5860 5858 5861 5859 5861 5858 5857 5855 5856 5857 5858 5859 5860 5858 5857 5856 5855 5850 5844 5841 5837 5834 5831 5828 5825 5822 5819 5816 5814 5812 5809 5806 5803 5801 5799 5796 5794 5792
5833 5834 5839 5845 5848 5852 5853 5850 5851 5853 5852 5855 5854 5855 5854 5851 5851 5851 5848 5850 5850 5849 5852 5851 5848 5846 5849 5847 5847 5842 5837 5834 5830 5826 5824 5821 5817 5814 5812 5810 5807 5804 5802 5798 5796 5793 5790 5788 5787
5824 5823 5832 5839 5842 5844 5843 5846 5846 5847 5848 5851 5849 5847 5849 5847 5848 5848 5848 5847 5845 5844 5845 5844 5840 5837 5840 5837 5840 5838 5833 5830 5826 5822 5819 5816 5813 5810 5807 5805 5802 5800 5797 5794 5791 5788 5785 5782 5781
5813 5815 5825 5836 5836 5836 5834 5839 5842 5841 5844 5845 5846 5846 5844 5844 5846 5843 5843 5841 5838 5838 5836 5836 5835 5832 5833 5830 5832 5829 5826 5824 5820 5816 5813 5811 5808 5805 5802 5799 5797 5795 5792 5788 5786 5783 5780 5777 5775
5804 5806 5820 5826 5827 5826 5826 5827 5834 5835 5836 5842 5841 5841 5841 5839 5841 5841 5839 5836 5833 5832 5831 5832 5830 5827 5828 5824 5824 5821 5818 5817 5814 5811 5807 5806 5803 5800 5797 5794 5792 5789 5787 5784 5781 5777 5775 5772 5770
5793 5800 5806 5817 5816 5817 5819 5817 5818 5826 5833 5835 5835 5836 5835 5836 5837 5835 5832 5833 5832 5829 5828 5827 5825 5821 5820 5819 5817 5814 5812 5811 5808 5805 5802 5800 5798 5794 5792 5789 5786 5784 5781 5779 5775 5772 5769 5766 5764
5785 5794 5791 5800 5807 5808 5809 5810 5813 5813 5818 5825 5827 5828 5831 5831 5830 5830 5830 5831 5830 5826 5822 5820 5817 5814 5814 5813 5811 5808 5807 5805 5802 5799 5796 5794 5791 5788 5785 5783 5780 5778 5775 5772 5769 5766 5762 5760 5757
5778 5779 5782 5784 5792 5797 5796 5801 5804 5809 5820 5818 5817 5820 5821 5821 5821 5820 5822 5822 5821 5819 5816 5812 5809 5807 5806 5806 5805 5802 5800 5798 5795 5793 5790 5788 5786 5782 5779 5776 5774 5772 5769 5766 5763 5759 5755 5753 5750
5764 5764 5766 5773 5777 5780 5787 5787 5793 5805 5808 5809 5811 5810 5811 5812 5813 5813 5812 5811 5812 5809 5806 5804 5802 5801 5800 5799 5797 5796 5793 5790 5788 5786 5784 5782 5780 5776 5773 5771 5767 5765 5762 5759 5755 5751 5748 5746 5743
5749 5750 5754 5766 5769 5771 5773 5773 5792 5795 5794 5796 5800 5803 5803 5804 5804 5804 5804 5804 5803 5800 5799 5798 5797 5794 5790 5791 5789 5787 5786 5783 5781 5779 5778 5776 5773 5770 5766 5763 5759 5758 5755 5752 5748 5743 5740 5737 5735
5732 5739 5744 5754 5761 5757 5754 5762 5776 5783 5782 5785 5787 5790 5791 5792 5794 5796 5795 5795 5793 5793 5791 5791 5788 5785 5782 5782 5781 5779 5779 5777 5775 5774 5773 5770 5767 5765 5762 5753 5753 5751 5748 5744 5739 5734 5731 5727 5724
5726 5733 5733 5733 5744 5747 5746 5753 5763 5767 5768 5771 5773 5776 5778 5781 5784 5786 5785 5784 5784 5784 5783 5782 5779 5777 5775 5773 5772 5772 5771 5770 5769 5768 5767 5765 5762 5760 5757 5752 5748 5745 5741 5735 5729 5725 5721 5717 5713
5709 5710 5712 5721 5728 5734 5735 5742 5751 5752 5753 5758 5763 5766 5768 5772 5774 5777 5776 5776 5775 5775 5775 5773 5771 5768 5766 5765 5765 5764 5764 5764 5763 5762 5761 5759 5756 5753 5750 5747 5742 5737 5731 5725 5720 5716 5712 5709 5705
5693 5697 5704 5711 5715 5719 5728 5727 5736 5742 5746 5752 5755 5758 5761 5762 5767 5767 5768 5769 5769 5769 5767 5765 5763 5760 5758 5757 5758 5757 5757 5756 5757 5756 5755 5752 5750 5747 5743 5738 5733 5728 5724 5719 5713 5709 5706 5703 5700
5678 5683 5695 5701 5705 5709 5715 5713 5727 5735 5739 5743 5745 5748 5752 5755 5758 5758 5760 5761 5761 5760 5758 5757 5754 5753 5751 5749 5749 5750 5750 5751 5751 5750 5748 5744 5742 5739 5735 5731 5725 5723 5717 5712 5709 5705 5702 5699 5696
5664 5674 5685 5688 5693 5700 5706 5702 5715 5730 5733 5735 5737 5743 5746 5749 5750 5751 5752 5753 5753 5753 5750 5748 5747 5745 5744 5743 5742 5744 5745 5745 5745 5743 5741 5737 5734 5731 5728 5724 5721 5716 5712 5709 5705 5701 5697 5694 5690
5657 5659 5671 5675 5682 5689 5697 5695 5717 5724 5725 5732 5735 5735 5738 5739 5741 5743 5744 5744 5745 5745 5743 5741 5739 5739 5738 5738 5739 5740 5739 5739 5738 5735 5732 5731 5728 5726 5722 5718 5715 5712 5709 5705 5701 5696 5693 5689 5685
5639 5646 5658 5663 5669 5671 5693 5693 5707 5715 5722 5724 5725 5723 5726 5731 5734 5735 5737 5738 5738 5737 5735 5734 5734 5735 5735 5735 5735 5735 5735 5733 5731 5729 5727 5725 5723 5720 5717 5714 5711 5708 5706 5702 5697 5693 5689 5685 5681
5624 5632 5643 5649 5651 5672 5687 5687 5699 5709 5711 5715 5715 5718 5724 5727 5729 5731 5732 5732 5730 5729 5728 5728 5729 5730 5731 5731 5731 5731 5730 5728 5727 5724 5722 5720 5718 5716 5713 5710 5707 5705 5702 5698 5693 5689 5686 5683 5680
5614 5621 5630 5638 5649 5666 5677 5679 5690 5704 5706 5708 5711 5716 5720 5723 5726 5726 5726 5725 5723 5722 5723 5724 5726 5727 5727 5727 5727 5726 5725 5724 5722 5720 5718 5716 5713 5711 5709 5707 5705 5702 5699 5696 5691 5687 5684 5682 5679
5603 5608 5627 5629 5641 5654 5667 5676 5685 5696 5704 5706 5710 5712 5716 5718 5719 5719 5719 5719 5718 5718 5719 5721 5722 5723 5723 5723 5723 5722 5721 5720 5718 5716 5714 5711 5709 5708 5706 5705 5702 5700 5697 5694 5690 5686 5683 5681 5679
5595 5604 5610 5617 5631 5646 5658 5668 5674 5690 5699 5700 5705 5708 5711 5712 5713 5714 5715 5715 5715 5715 5717 5718 5719 5719 5719 5719 5718 5717 5716 5715 5714 5711 5709 5707 5706 5704 5703 5701 5699 5697 5695 5693 5690 5686 5682 5680 5678
5586 5592 5600 5612 5625 5639 5652 5661 5670 5683 5694 5692 5700 5704 5706 5708 5709 5710 5711 5711 5712 5713 5714 5714 5715 5716 5715 5714 5714 5713 5712 5711 5709 5707 5705 5704 5703 5701 5700 5698 5697 5696 5694 5692 5690 5686 5683 5680 5678
5574 5582 5589 5602 5619 5632 5641 5652 5663 5675 5683 5684 5692 5700 5703 5705 5705 5706 5706 5707 5709 5710 5711 5711 5712 5712 5711 5711 5710 5710 5709 5707 5705 5703 5702 5702 5700 5699 5698 5697 5696 5696 5695 5692 5688 5685 5682 5680 5678